Time,TemperatureF,DewpointF,PressureIn,WindDirection,WindDirectionDegrees,WindSpeedMPH,WindSpeedGustMPH,Humidity,HourlyPrecipIn,Conditions,Clouds,dailyrainin,SolarRadiationWatts/m^2,SoftwareType,DateUTC
2013-02-28 02:00:00,29.0,25.0,30.10,NNW,345,18.0,-999.0,85,-99.99,,,-99.99,0.010000,,2013-02-28 08:00:00,
2013-02-28 02:53:00,29.0,25.0,30.10,NNW,345,18.0,-999.0,85,-99.99,,,-99.99,0.010000,,2013-02-28 08:53:00,
2013-02-28 03:00:00,29.0,25.0,30.10,NNW,341,16.0,-999.0,87,-99.99,,,-99.99,0.010000,,2013-02-28 09:00:00,
2013-02-28 03:52:00,29.0,25.0,30.10,NNW,341,16.0,-999.0,87,-99.99,,,-99.99,0.010000,,2013-02-28 09:52:00,
2013-02-28 04:00:00,28.0,24.0,30.11,NNW,345,16.0,-999.0,84,-99.99,,,-99.99,0.020000,,2013-02-28 10:00:00,
2013-02-28 04:52:00,28.0,24.0,30.11,NNW,345,16.0,-999.0,84,-99.99,,,-99.99,0.020000,,2013-02-28 10:52:00,
2013-02-28 05:00:00,28.0,23.0,30.13,NNW,343,16.0,-999.0,83,-99.99,,,-99.99,0.020000,,2013-02-28 11:00:00,
2013-02-28 05:52:00,28.0,23.0,30.13,NNW,343,16.0,-999.0,83,-99.99,,,-99.99,0.020000,,2013-02-28 11:52:00,
2013-02-28 06:00:00,27.0,24.0,30.14,NNW,344,17.0,-999.0,86,-99.99,,,-99.99,0.020000,,2013-02-28 12:00:00,
2013-02-28 06:52:00,27.0,24.0,30.14,NNW,344,17.0,-999.0,86,-99.99,,,-99.99,0.020000,,2013-02-28 12:52:00,
2013-02-28 07:00:00,27.0,23.0,30.15,NNW,340,15.0,-999.0,85,-99.99,,,-99.99,0.100000,,2013-02-28 13:00:00,
2013-02-28 07:52:00,27.0,23.0,30.15,NNW,340,15.0,-999.0,85,-99.99,,,-99.99,0.100000,,2013-02-28 13:52:00,
2013-02-28 08:00:00,27.0,23.0,30.16,NNW,335,14.0,-999.0,86,-99.99,,,-99.99,9.020000,,2013-02-28 14:00:00,
2013-02-28 08:52:00,27.0,23.0,30.16,NNW,335,14.0,-999.0,86,-99.99,,,-99.99,9.020000,,2013-02-28 14:52:00,
2013-02-28 09:00:00,27.0,24.0,30.18,NNW,339,16.0,-999.0,86,-99.99,,,-99.99,42.430000,,2013-02-28 15:00:00,
2013-02-28 09:52:00,27.0,24.0,30.18,NNW,339,16.0,-999.0,86,-99.99,,,-99.99,42.430000,,2013-02-28 15:52:00,
2013-02-28 10:00:00,27.0,24.0,30.19,NNW,344,15.0,-999.0,85,-99.99,,,-99.99,76.500000,,2013-02-28 16:00:00,
2013-02-28 10:52:00,27.0,24.0,30.19,NNW,344,15.0,-999.0,85,-99.99,,,-99.99,76.500000,,2013-02-28 16:52:00,
2013-02-28 11:00:00,28.0,23.0,30.20,NNW,343,16.0,-999.0,83,-99.99,,,-99.99,121.500000,,2013-02-28 17:00:00,
2013-02-28 11:53:00,28.0,23.0,30.20,NNW,343,16.0,-999.0,83,-99.99,,,-99.99,121.500000,,2013-02-28 17:53:00,
2013-02-28 13:00:00,30.0,24.0,30.19,NNW,342,14.0,-999.0,79,-99.99,,,-99.99,194.699997,,2013-02-28 19:00:00,
2013-02-28 13:52:00,30.0,24.0,30.19,NNW,342,14.0,-999.0,79,-99.99,,,-99.99,194.699997,,2013-02-28 19:52:00,
2013-02-28 14:00:00,32.0,25.0,30.17,NNW,345,13.0,-999.0,75,-99.99,,,-99.99,343.299988,,2013-02-28 20:00:00,
2013-02-28 14:52:00,32.0,25.0,30.17,NNW,345,13.0,-999.0,75,-99.99,,,-99.99,343.299988,,2013-02-28 20:52:00,
2013-02-28 15:00:00,31.0,24.0,30.17,NNW,338,15.0,-999.0,74,-99.99,,,-99.99,245.600006,,2013-02-28 21:00:00,
2013-02-28 15:52:00,31.0,24.0,30.17,NNW,338,15.0,-999.0,74,-99.99,,,-99.99,245.600006,,2013-02-28 21:52:00,
2013-02-28 16:00:00,31.0,25.0,30.17,NNW,339,14.0,-999.0,78,-99.99,,,-99.99,134.000000,,2013-02-28 22:00:00,
2013-02-28 16:52:00,31.0,25.0,30.17,NNW,339,14.0,-999.0,78,-99.99,,,-99.99,134.000000,,2013-02-28 22:52:00,
2013-02-28 17:00:00,29.0,24.0,30.17,North,351,13.0,-999.0,82,-99.99,,,-99.99,99.400002,,2013-02-28 23:00:00,
2013-02-28 17:53:00,29.0,24.0,30.17,North,351,13.0,-999.0,82,-99.99,,,-99.99,99.400002,,2013-02-28 23:53:00,
2013-02-28 18:00:00,28.0,24.0,30.19,North,350,13.0,-999.0,83,-99.99,,,-99.99,36.869999,,2013-03-01 00:00:00,
2013-02-28 18:52:00,28.0,24.0,30.19,North,350,13.0,-999.0,83,-99.99,,,-99.99,36.869999,,2013-03-01 00:52:00,
2013-02-28 19:00:00,27.0,22.0,30.21,North,354,14.0,-999.0,83,-99.99,,,-99.99,1.060000,,2013-03-01 01:00:00,
2013-02-28 19:52:00,27.0,22.0,30.21,North,354,14.0,-999.0,83,-99.99,,,-99.99,1.060000,,2013-03-01 01:52:00,
2013-02-28 20:00:00,26.0,21.0,30.22,North,349,13.0,-999.0,82,-99.99,,,-99.99,0.010000,,2013-03-01 02:00:00,
2013-02-28 20:52:00,26.0,21.0,30.22,North,349,13.0,-999.0,82,-99.99,,,-99.99,0.010000,,2013-03-01 02:52:00,
2013-02-28 21:00:00,26.0,21.0,30.22,NNW,348,12.0,-999.0,82,-99.99,,,-99.99,0.000000,,2013-03-01 03:00:00,
2013-02-28 21:52:00,26.0,21.0,30.22,NNW,348,12.0,-999.0,82,-99.99,,,-99.99,0.000000,,2013-03-01 03:52:00,
2013-02-28 22:00:00,26.0,21.0,30.22,NNW,343,11.0,-999.0,81,-99.99,,,-99.99,0.000000,,2013-03-01 04:00:00,
2013-02-28 22:52:00,26.0,21.0,30.22,NNW,343,11.0,-999.0,81,-99.99,,,-99.99,0.000000,,2013-03-01 04:52:00,
2013-02-28 23:00:00,26.0,21.0,30.21,NNW,347,12.0,-999.0,81,-99.99,,,-99.99,0.000000,,2013-03-01 05:00:00,
2013-02-28 23:53:00,26.0,21.0,30.21,NNW,347,12.0,-999.0,81,-99.99,,,-99.99,0.000000,,2013-03-01 05:53:00,